B. M. Africanoの通報によると、1月19.5日UT、Catalinaの0.68-m Schmidt望遠鏡で得たCCD画像から
他の彗星を発見した。30秒露出4枚重ねで10" のコンパクトな明るい核で拡散した球体状に見える。
明らかな尾はなかったが、彗星のイメージはp.a. 290-300°に向かって伸びているかもしれない。
D. C. FulsがMtLemmonにあるSteward天文台の1.0-m 反射望遠鏡による発見観測の少し後に得られた
CCD観測(1月19.5日UT)では、大変拡散した約10"〜12"のコマがある。
小惑星センターのPCCP webpageに公表後、P. Birtwhistle (GreatShefford, Berkshire, 英国, 0.41-m
f/6.3 Schmidt-Cassegrain反射望遠鏡)は、1月23.0日、合計52.8分のスタック画像から、この彗星
は8"の拡散したコマと9"西に伸びていると観測した。
発見位置は次のとおり、
2019 UT R.A. (2000) Decl. Mag. Observer
Jan. 19.47745 13 41 40.77 +55 35 16.9 17.8 Africano
19.48255 13 41 39.52 +55 35 34.7 17.6 "
19.48764 13 41 37.94 +55 35 53.4 17.5 "
19.49273 13 41 36.83 +55 36 12.1 17.7 "
19.50653 13 41 33.89 +55 37 01.7 18.9 "
暫定放物線軌道要素と位置推算表は次のとおり、
Orbital elements:
C/2019 B1 (Africano)
T 2019 Mar. 19.23662 TT MPCW
q 1.6057674 (2000.0) P Q
Peri. 174.09325 -0.39659991 +0.48057156
Node 290.18416 +0.80444528 +0.59240092
e 1.0 Incl. 123.55803 +0.44224010 -0.64661591
From 17 observations 2019 Jan. 19-23.
Ephemeris:
C/2019 B1 (Africano)
Date TT R. A. (2000) Decl. Delta r Elong. Phase m1
2018 12 24 14 15 38.7 +38 29 55 1.8378 1.9667 82.4 29.7 20.3
...
2019 01 08 14 07 17.6 +46 03 07 1.4606 1.8611 97.3 31.6 19.5
...
2019 01 16 13 52 45.2 +52 17 17 1.2731 1.8103 106.0 31.5 19.1
...
2019 01 22 13 30 39.4 +58 11 44 1.1480 1.7752 112.5 30.8 18.8
2019 01 23 13 25 21.9 +59 16 26 1.1290 1.7696 113.6 30.7 18.7
2019 01 24 13 19 26.2 +60 22 24 1.1106 1.7640 114.6 30.5 18.7
...
2019 01 30 12 24 18.7 +67 04 42 1.0156 1.7326 120.0 29.5 18.4
...
2019 02 07 09 43 22.0 +72 17 08 0.9413 1.6953 123.2 29.1 18.2
...
2019 02 22 05 49 26.4 +55 40 15 0.9996 1.6418 111.3 34.1 18.2
(CBET 4604、MPEC 2019-B65)